Crossville, TN

5:37 PM CDT on September 21, 2017 (GMT -0500)
Crossville Memorial-Whitson

Weather History for KCSV - March, 2013

Change the Weather History Date:

Tuesday, March 5, 2013

  Actual Average Record
Temperature  
Mean Temperature 41 °F 44 °F  
Max Temperature 53 °F 54 °F 72 °F (1955)
Min Temperature 28 °F 34 °F -2 °F (1960)
Degree Days  
Heating Degree Days 24    
Month to date heating degree days 162  
Since 1 July heating degree days 3299  
Cooling Degree Days 0    
Month to date cooling degree days 0  
Year to date cooling degree days 0  
Moisture  
Dew Point 40 °F    
Average Humidity 69    
Maximum Humidity 92    
Minimum Humidity 45    
Precipitation  
Precipitation 1.30 in 0.15 in 3.64 in (1963)
Month to date precipitation 1.35 0.76  
Year to date precipitation 10.90 9.98  
Sea Level Pressure  
Sea Level Pressure 29.79 in    
Wind  
Wind Speed 12 mph (SW)    
Max Wind Speed 32 mph    
Max Gust Speed 46 mph    
Visibility 4 miles    
Events Fog , Rain , Snow , Thunderstorm    
T = Trace of Precipitation, MM = Missing Value Source: NWS Daily Summary

Daily Weather History Graph

Daily Weather History Graph

Search for Another Location

Airport or City:

Trip Planner

Search our weather history database for the weather conditions in past years. The results will help you decide how hot, cold, wet, or windy it might be!

Date:

Astronomy

Mar. 05, 2013 Rise Set
Actual Time 6:04 AM CST 5:39 PM CST
Civil Twilight 5:39 AM CST 6:04 PM CST
Nautical Twilight 5:09 AM CST 6:34 PM CST
Astronomical Twilight 4:39 AM CST 7:04 PM CST
Moon 1:07 AM CST (3/5) 11:25 AM CST (3/5)
Length of Visible Light 12h 25m
Length of Day
11h 34m
Last Quarter, 40% of the Moon is Illuminated
Mar 5
Last Quarter
Mar 11
New
Mar 19
First Quarter
Mar 27
Full
Apr 2
Last Quarter

Hourly Weather History & Observations

Time (CST) Temp. Windchill Dew Point Humidity Pressure Visibility Wind Dir Wind Speed Gust Speed Precip Events Conditions
1:53 AM 46.9 °F - 28.9 °F 50% 29.91 in 10.0 mi South 10.4 mph 17.3 mph N/A   Overcast
2:48 AM 44.6 °F 40.7 °F 32.0 °F 61% 29.89 in 10.0 mi South 6.9 mph - N/A   Overcast
2:53 AM 45.0 °F 41.8 °F 32.0 °F 60% 29.88 in 10.0 mi South 5.8 mph - N/A   Overcast
3:53 AM 43.0 °F 38.8 °F 36.0 °F 76% 29.88 in 10.0 mi South 6.9 mph - 0.03 in   Overcast
4:53 AM 44.1 °F 41.5 °F 39.0 °F 82% 29.88 in 10.0 mi South 4.6 mph - N/A   Overcast
5:53 AM 46.0 °F 43.1 °F 42.1 °F 86% 29.88 in 10.0 mi Variable 5.8 mph - N/A   Overcast
6:19 AM 46.4 °F 44.3 °F 42.8 °F 87% 29.88 in 9.0 mi Variable 4.6 mph - N/A   Overcast
6:51 AM 46.4 °F 43.5 °F 44.6 °F 93% 29.87 in 1.8 mi SSE 5.8 mph - 0.14 in Rain , Thunderstorm Rain
6:56 AM 46.4 °F 44.3 °F 44.6 °F 93% 29.87 in 2.0 mi South 4.6 mph - 0.00 in Rain Light Rain
7:11 AM 46.4 °F - 44.6 °F 93% 29.89 in 1.8 mi Calm Calm - 0.04 in Rain Rain
7:17 AM 46.4 °F - 44.6 °F 93% 29.88 in 3.0 mi Calm Calm - 0.04 in Rain Light Rain
7:43 AM 46.4 °F 44.3 °F 44.6 °F 93% 29.87 in 5.0 mi SE 4.6 mph - 0.05 in   Overcast
7:53 AM 46.9 °F - 45.0 °F 93% 29.86 in 4.0 mi SSE 5.8 mph - 0.05 in   Overcast
8:03 AM 46.4 °F 43.5 °F 44.6 °F 93% 29.86 in 2.5 mi SSE 5.8 mph - N/A   Overcast
8:12 AM 46.4 °F 44.3 °F 46.4 °F 100% 29.85 in 2.5 mi SSE 4.6 mph - N/A   Overcast
8:34 AM 48.2 °F - 46.4 °F 93% 29.84 in 2.5 mi Variable 6.9 mph - N/A   Overcast
8:53 AM 48.0 °F - 46.9 °F 96% 29.83 in 3.0 mi South 10.4 mph - 0.01 in Rain Light Rain
9:09 AM 48.2 °F - 46.4 °F 93% 29.82 in 1.8 mi SSE 5.8 mph - 0.01 in Rain Light Rain
9:25 AM 48.2 °F - 46.4 °F 93% 29.81 in 2.5 mi South 8.1 mph - 0.01 in   Overcast
9:45 AM 48.2 °F - 46.4 °F 93% 29.80 in 3.0 mi South 8.1 mph - 0.01 in   Overcast
9:53 AM 48.0 °F - 46.9 °F 96% 29.79 in 2.5 mi South 10.4 mph - 0.01 in   Overcast
10:22 AM 46.4 °F 42.9 °F 46.4 °F 100% 29.80 in 1.5 mi South 6.9 mph - 0.06 in Rain Rain
10:34 AM 46.4 °F 43.5 °F 46.4 °F 100% 29.80 in 0.8 mi SSE 5.8 mph - 0.15 in Rain Heavy Rain
10:37 AM 46.4 °F 43.5 °F 46.4 °F 100% 29.80 in 1.0 mi SSE 5.8 mph - 0.16 in Rain Rain
10:46 AM 46.4 °F 43.5 °F 46.4 °F 100% 29.81 in 1.0 mi Variable 5.8 mph - 0.22 in Rain , Thunderstorm Heavy Rain
10:53 AM 46.9 °F - 46.0 °F 97% 29.79 in 1.0 mi SSE 6.9 mph - 0.26 in Rain , Thunderstorm Rain
11:03 AM 48.2 °F - 46.4 °F 93% 29.79 in 1.5 mi South 4.6 mph - 0.05 in Rain , Thunderstorm Rain
11:10 AM 48.2 °F - 46.4 °F 93% 29.77 in 1.0 mi Variable 5.8 mph - 0.10 in Rain Rain
11:25 AM 48.2 °F - 46.4 °F 93% 29.77 in 3.0 mi SSE 4.6 mph - 0.15 in Rain Light Rain
11:53 AM 48.9 °F - 48.0 °F 97% 29.70 in 8.0 mi Variable 3.5 mph - 0.17 in Rain Light Rain
12:23 PM 51.8 °F - 48.2 °F 88% 29.69 in 10.0 mi South 10.4 mph 19.6 mph N/A   Overcast
12:25 PM 51.8 °F - 48.2 °F 88% 29.69 in 10.0 mi South 9.2 mph 19.6 mph N/A   Overcast
12:43 PM 53.6 °F - 50.0 °F 88% 29.66 in 10.0 mi Variable 6.9 mph 25.3 mph N/A   Overcast
12:53 PM 53.1 °F - 50.0 °F 89% 29.63 in 10.0 mi South 9.2 mph 20.7 mph N/A   Overcast
1:03 PM 53.6 °F - 51.8 °F 94% 29.65 in 1.8 mi South 9.2 mph 19.6 mph 0.05 in Rain Heavy Rain
1:13 PM 51.8 °F - 50.0 °F 94% 29.64 in 1.5 mi South 11.5 mph 19.6 mph 0.11 in Rain Light Rain
1:19 PM 51.8 °F - 50.0 °F 94% 29.64 in 3.0 mi South 10.4 mph 19.6 mph 0.13 in Rain Light Rain
1:30 PM 51.8 °F - 50.0 °F 94% 29.63 in 2.0 mi South 8.1 mph - 0.17 in Rain Rain
1:38 PM 51.8 °F - 50.0 °F 94% 29.63 in 1.5 mi South 9.2 mph - 0.22 in Rain Rain
1:53 PM 50.0 °F - 46.9 °F 89% 29.67 in 1.0 mi West 12.7 mph 28.8 mph 0.36 in Rain Rain
2:04 PM 48.2 °F - 46.4 °F 93% 29.68 in 1.5 mi West 9.2 mph - 0.06 in Rain Rain
2:10 PM 48.2 °F - 46.4 °F 93% 29.69 in 1.5 mi WSW 11.5 mph 20.7 mph 0.08 in Rain Rain
2:14 PM 48.2 °F - 46.4 °F 93% 29.69 in 2.0 mi West 10.4 mph 20.7 mph 0.09 in Rain , Thunderstorm Rain
2:33 PM 48.2 °F - 46.4 °F 93% 29.68 in 2.0 mi WSW 8.1 mph - 0.17 in Rain Rain
2:36 PM 48.2 °F - 46.4 °F 93% 29.69 in 2.0 mi WSW 9.2 mph - 0.17 in Rain Rain
2:49 PM 50.0 °F - 46.4 °F 87% 29.67 in 3.0 mi WSW 9.2 mph 20.7 mph 0.21 in Rain Light Rain
2:53 PM 50.0 °F - 46.9 °F 89% 29.66 in 7.0 mi WSW 8.1 mph 19.6 mph 0.21 in Rain Light Rain
3:22 PM 51.8 °F - 48.2 °F 88% 29.62 in 6.0 mi West 9.2 mph 17.3 mph 0.01 in Rain Light Rain
3:30 PM 50.0 °F - 48.2 °F 94% 29.62 in 10.0 mi WSW 11.5 mph 18.4 mph 0.01 in   Overcast
3:53 PM 45.0 °F 35.8 °F 42.1 °F 90% 29.69 in 5.0 mi West 26.5 mph 46.0 mph 0.03 in Rain Light Rain
4:53 PM 37.9 °F 27.1 °F 36.0 °F 93% 29.78 in 8.0 mi West 23.0 mph 39.1 mph 0.01 in   Overcast
5:53 PM 33.1 °F 20.6 °F 30.9 °F 92% 29.85 in 7.0 mi West 23.0 mph 35.7 mph 0.00 in   Overcast
6:53 PM 32.0 °F 19.8 °F 28.9 °F 88% 29.88 in 5.0 mi West 20.7 mph 33.4 mph 0.00 in   Overcast
7:20 PM 32.0 °F 20.8 °F 28.4 °F 87% 29.86 in 6.0 mi WNW 17.3 mph 28.8 mph 0.00 in   Overcast
7:37 PM 32.0 °F 21.2 °F 28.4 °F 87% 29.86 in 6.0 mi WNW 16.1 mph 26.5 mph 0.00 in   Overcast
7:53 PM 32.0 °F 20.8 °F 27.0 °F 82% 29.88 in 7.0 mi WNW 17.3 mph 32.2 mph 0.00 in   Overcast
8:23 PM 30.2 °F 18.5 °F 28.4 °F 93% 29.87 in 4.0 mi WNW 17.3 mph 26.5 mph 0.00 in Snow Light Snow
8:53 PM 32.0 °F 21.2 °F 26.1 °F 79% 29.88 in 10.0 mi West 16.1 mph 33.4 mph 0.00 in   Overcast
9:53 PM 30.9 °F 20.2 °F 25.0 °F 79% 29.87 in 5.0 mi WNW 15.0 mph 24.2 mph 0.00 in Snow Light Snow
10:48 PM 30.2 °F 20.2 °F 26.6 °F 86% 29.87 in 1.5 mi West 12.7 mph 26.5 mph 0.01 in Snow Light Snow
10:51 PM 30.2 °F 17.1 °F 26.6 °F 86% 29.87 in 0.5 mi WNW 21.9 mph 41.4 mph 0.01 in Fog , Snow Snow
10:53 PM 28.9 °F 15.4 °F 26.1 °F 89% 29.89 in 0.2 mi WNW 21.9 mph 41.4 mph 0.01 in Fog , Snow Heavy Snow
11:00 PM 28.4 °F 15.4 °F 24.8 °F 86% 29.87 in 0.5 mi West 19.6 mph 41.4 mph 0.00 in Fog , Snow Snow
11:04 PM 28.4 °F 16.6 °F 24.8 °F 86% 29.87 in 1.0 mi West 16.1 mph 31.1 mph 0.00 in Snow Light Snow
11:16 PM 28.4 °F 17.0 °F 24.8 °F 86% 29.87 in 1.2 mi WNW 15.0 mph 28.8 mph 0.00 in Snow Light Snow
11:22 PM 28.4 °F 16.2 °F 23.0 °F 80% 29.87 in 3.0 mi WNW 17.3 mph 28.8 mph 0.00 in Snow Light Snow
11:53 PM 28.0 °F 16.1 °F 23.0 °F 81% 29.89 in 3.0 mi WNW 16.1 mph 26.5 mph 0.00 in Snow Light Snow
11:59 PM 28.4 °F 15.1 °F 23.0 °F 80% 29.87 in 1.8 mi WNW 20.7 mph 31.1 mph 0.00 in Snow Light Snow